Theta_e
349 347 346 344 344 346 345 345 347 350 344 338 340 340 337 337 339 338 337 340 339 341 341 339 342 342 342 341 341 341 340 338 338 337 336 334 333 333 332 332 332 332 332
347 346 345 343 346 348 347 345 347 347 345 340 343 344 343 343 343 342 342 342 338 339 338 340 343 341 341 341 339 339 336 335 334 332 331 330 332 333 333 332 332 333 332
346 344 344 343 347 347 347 344 347 346 345 342 343 343 345 344 344 343 343 341 340 343 342 338 340 340 339 340 339 340 337 334 331 328 328 331 332 332 333 331 331 332 332
346 343 343 343 346 346 345 343 346 345 345 344 342 343 344 344 344 342 344 340 343 342 340 338 339 338 337 337 334 330 335 335 330 328 331 332 333 333 333 332 332 331 330
347 344 342 343 346 345 344 342 343 346 344 344 342 343 342 343 343 342 341 338 341 341 340 337 337 332 336 331 329 330 331 332 329 327 331 332 332 332 332 331 331 330 330
347 344 344 343 344 345 345 343 342 345 343 344 343 343 342 341 342 340 338 338 339 338 337 335 332 333 333 327 328 329 329 329 329 327 330 331 332 332 331 331 331 329 330
346 344 344 343 342 345 344 343 342 343 343 344 343 343 340 340 342 339 335 338 337 336 336 334 331 326 320 328 328 330 330 330 328 328 331 331 332 331 331 331 330 329 329
346 342 342 343 341 344 345 343 342 343 343 343 342 340 338 338 340 339 338 336 335 336 335 334 331 326 321 328 329 331 330 330 328 328 330 330 331 331 330 330 329 329 329
345 344 342 341 341 340 344 344 343 343 343 342 342 340 341 338 337 339 337 334 328 328 326 324 320 316 323 328 329 330 330 329 325 328 329 330 330 331 330 329 329 328 328
345 344 344 340 339 339 337 342 343 343 343 342 341 340 340 337 336 339 337 335 330 324 318 316 315 316 324 328 329 330 330 330 329 326 329 330 331 331 330 329 328 328 327
342 343 345 342 341 341 338 338 340 341 342 342 341 340 339 337 337 337 335 333 324 319 316 316 318 319 324 328 329 330 329 329 327 324 329 330 331 331 330 329 328 327 327
338 341 343 344 343 342 339 336 339 341 342 342 341 340 338 336 336 336 333 329 322 318 317 318 320 320 326 328 328 329 329 329 329 322 326 329 331 330 328 326 325 326 326
329 337 342 343 342 342 342 337 337 342 342 341 341 340 337 336 336 335 334 330 322 319 320 321 322 320 327 329 328 328 330 330 329 322 324 327 330 329 325 324 325 325 325
328 334 335 339 341 341 341 338 341 342 341 341 340 338 335 336 335 334 334 331 324 322 322 324 328 329 328 330 329 329 329 329 329 327 323 324 326 328 327 326 325 324 324
322 328 331 332 337 341 341 337 340 341 341 341 338 336 334 336 335 334 333 332 327 326 326 329 331 331 331 330 330 329 329 329 330 330 326 324 325 326 326 326 326 325 324
323 321 321 325 333 337 341 339 340 340 340 339 337 333 333 335 336 333 332 332 329 327 326 329 331 330 330 329 328 328 329 329 329 329 329 327 324 325 326 327 327 327 327
322 321 321 323 329 330 332 332 338 339 338 338 336 331 331 337 336 332 331 330 329 330 328 330 330 329 329 328 328 327 325 326 328 328 328 329 328 326 324 326 329 330 330
320 322 321 320 324 325 331 329 329 339 338 337 334 331 330 336 335 332 331 330 331 332 331 330 328 329 328 328 328 327 325 327 325 325 325 326 326 328 328 327 326 328 329
319 321 322 320 320 322 329 328 327 336 338 337 334 331 332 335 335 332 331 329 332 332 330 328 327 327 327 329 332 331 331 330 330 329 326 326 325 327 327 328 329 327 327
318 318 320 319 320 320 330 328 328 331 337 336 333 331 332 335 333 333 330 330 333 331 329 327 326 326 330 333 332 331 331 330 328 329 328 327 326 326 326 326 327 328 328
317 319 322 321 319 320 329 330 332 336 332 333 332 332 334 334 333 334 331 333 332 329 327 327 325 327 331 333 332 330 329 330 329 329 328 328 327 326 326 326 327 328 328
320 321 321 323 323 321 330 330 333 335 330 332 331 331 333 334 333 332 332 332 331 328 326 325 325 332 333 333 331 330 328 329 329 330 330 329 328 328 328 328 328 328 328
321 324 323 324 323 321 331 329 329 331 329 331 332 330 331 333 333 332 331 330 329 327 326 328 331 332 333 333 331 330 326 327 328 327 328 327 326 326 326 326 326 326 326
318 319 324 326 324 323 330 329 328 329 328 329 331 330 332 333 332 331 330 329 327 327 330 331 332 332 334 332 331 331 329 329 324 327 327 326 326 325 325 324 325 325 325
319 321 327 326 324 326 327 329 328 328 328 328 330 330 331 332 330 329 328 327 327 330 332 332 334 334 334 331 331 329 330 329 329 325 322 325 324 325 325 323 322 322 322
319 323 327 326 325 324 322 330 328 328 328 328 328 329 328 329 329 327 327 327 330 333 332 333 334 333 334 333 330 330 329 328 327 327 325 323 323 325 324 323 322 321 321
Wind_Speed
23 31 29 28 24 27 29 27 24 24 22 24 23 21 21 21 23 22 23 21 20 19 20 22 20 20 22 22 23 23 23 23 23 22 21 21 22 22 22 22 23 21 20
34 34 28 26 24 25 27 26 24 26 22 25 24 20 22 20 22 21 20 19 20 20 21 21 21 20 22 23 23 23 24 22 19 18 20 25 24 22 22 22 23 22 21
36 38 33 26 27 25 26 26 25 25 24 24 24 22 20 22 22 21 20 20 21 18 22 21 21 21 22 22 22 20 21 23 20 19 23 24 23 21 21 21 21 21 20
34 38 36 31 28 26 26 26 25 24 25 25 25 24 21 23 23 22 21 22 19 21 24 24 22 21 22 24 23 18 16 19 18 18 21 22 21 19 19 19 20 19 19
31 37 38 32 28 29 27 26 26 24 25 26 24 26 23 23 24 23 23 22 21 23 23 23 21 23 25 24 23 25 22 17 16 16 19 21 20 18 18 19 19 19 19
31 35 35 33 30 28 29 28 26 26 25 25 25 26 25 23 24 24 23 23 23 25 23 19 20 24 23 22 22 20 19 15 13 17 21 20 20 17 18 18 18 17 17
30 32 32 34 32 29 28 29 27 26 25 25 25 25 25 25 23 25 24 23 22 25 23 19 18 22 23 23 18 17 19 14 15 19 20 19 18 17 17 17 17 16 16
31 30 30 32 34 30 28 28 28 27 26 25 26 25 24 26 25 25 25 22 21 21 20 18 17 19 23 22 20 21 17 11 14 18 19 18 16 16 16 16 15 16 15
28 32 30 32 31 33 28 27 28 27 27 27 26 26 26 26 24 24 24 21 20 19 19 18 18 20 23 22 19 19 13 14 16 17 17 17 15 14 14 14 14 15 14
22 28 31 33 32 32 32 27 26 27 27 27 26 28 27 24 26 24 23 20 19 19 19 19 20 21 22 22 22 20 16 12 13 15 16 15 14 13 13 13 13 13 13
18 22 30 34 33 33 33 31 27 28 29 28 28 29 28 26 27 24 23 21 20 19 20 20 20 20 21 22 21 17 13 11 8 12 15 13 12 12 12 12 12 11 11
19 20 25 32 34 33 31 33 31 29 30 31 32 32 30 28 28 26 23 21 21 21 20 20 20 21 22 19 16 13 15 10 6 10 13 12 11 10 10 10 10 10 10
5 19 22 25 32 34 29 33 35 32 34 34 35 36 32 30 28 26 25 23 22 22 21 21 21 20 20 16 14 14 15 7 6 8 10 10 9 9 8 8 8 8 8
2 8 14 14 23 31 29 33 30 35 36 38 38 35 35 33 31 29 28 25 25 24 23 21 20 18 15 10 9 11 14 8 6 6 6 8 7 7 6 6 6 6 6
0 5 11 11 15 32 29 34 32 36 37 40 39 35 38 34 34 32 30 27 25 24 23 22 16 12 10 10 9 9 11 8 7 4 4 4 5 5 4 4 3 3 3
4 1 7 12 15 19 31 29 32 36 37 41 40 37 40 37 36 35 32 28 25 22 22 19 15 13 13 11 12 9 9 8 7 4 4 3 3 3 3 4 4 3 1
13 7 5 8 11 17 27 25 24 35 36 43 39 37 40 36 38 36 31 29 28 23 22 17 15 16 12 12 10 8 8 8 7 5 3 3 3 2 4 5 5 5 4
23 21 12 7 11 16 28 30 41 39 38 41 35 38 43 37 38 37 32 29 28 26 22 19 19 17 15 10 11 9 8 5 7 6 5 5 5 4 3 4 7 7 8
31 29 21 16 15 16 28 34 38 32 41 42 35 38 44 40 41 36 33 32 29 26 26 23 20 18 15 12 9 9 8 6 5 5 7 7 7 6 5 5 7 8 9
30 30 29 23 21 16 32 33 31 34 36 38 38 39 42 41 43 40 36 33 28 28 26 24 22 18 14 13 10 7 6 5 6 5 5 6 5 7 7 8 8 8 9
26 30 29 24 18 21 30 32 33 35 39 37 39 45 39 38 38 40 40 38 34 31 28 25 21 18 15 13 11 6 6 7 7 6 6 7 5 7 8 9 10 10 11
28 32 29 29 23 15 32 38 35 38 34 37 43 46 44 36 36 41 40 39 36 31 27 25 25 19 14 14 7 6 2 2 5 7 7 7 7 8 7 8 10 6 7
29 27 31 33 26 23 31 36 34 35 32 32 35 36 43 39 40 39 39 37 35 33 31 28 24 23 14 14 11 5 2 3 4 5 5 3 2 2 5 7 8 10 9
26 31 32 34 30 27 27 27 35 32 32 32 34 38 39 39 42 38 37 35 34 33 30 28 25 23 20 18 14 8 5 6 3 1 3 1 1 5 2 4 4 4 5
29 26 25 28 27 21 37 26 34 30 31 33 33 35 38 42 41 37 37 35 35 33 31 29 27 24 19 19 17 12 8 7 6 3 1 1 3 4 2 4 5 6 5
23 22 25 28 28 27 11 33 36 32 30 29 31 34 34 40 40 37 38 38 36 34 32 31 27 24 21 19 16 14 11 4 7 5 2 4 4 3 1 4 5 5 5
Wind_Direction
164 167 170 165 161 161 160 158 155 146 146 143 140 138 133 128 124 117 119 119 116 113 111 115 112 102 100 99 98 96 96 94 91 91 92 88 83 80 79 78 79 77 75
163 167 171 167 160 163 162 160 157 151 152 149 144 143 137 131 131 125 124 123 122 119 116 117 110 106 103 101 100 98 94 89 84 82 89 86 85 83 83 81 80 79 77
165 166 169 170 161 167 165 165 159 155 157 154 151 146 145 141 137 132 133 129 129 128 124 119 115 110 109 106 102 99 99 89 83 79 88 88 86 86 85 83 80 80 79
166 166 169 169 166 166 171 169 163 162 161 160 157 149 148 144 141 135 133 134 129 123 125 122 120 118 116 110 99 88 112 101 105 89 92 93 91 88 87 84 84 81 81
165 171 168 169 167 169 173 174 170 168 166 165 160 154 152 149 145 142 141 143 132 128 129 127 124 124 122 115 106 95 98 119 108 98 103 99 93 89 88 87 86 82 81
166 175 171 171 170 173 173 176 176 174 171 169 165 159 156 155 149 148 153 148 137 129 124 127 134 129 127 121 113 107 106 108 102 98 96 92 90 90 88 87 85 82 83
164 175 172 174 173 175 178 177 181 178 175 173 169 165 159 158 155 154 155 152 143 139 142 129 128 128 126 124 115 109 120 109 104 106 101 97 94 92 91 88 87 87 85
170 171 173 177 174 177 180 180 181 181 179 177 172 168 161 161 162 161 157 155 154 150 142 135 135 132 132 127 113 112 117 106 107 109 105 101 98 95 94 92 91 89 87
179 171 174 179 182 179 179 180 183 183 181 180 177 168 164 167 165 165 160 155 156 153 146 143 140 137 137 129 113 116 110 108 111 113 109 106 103 100 99 96 94 93 90
193 183 179 181 185 182 179 181 183 185 185 181 177 171 172 169 164 165 159 157 156 155 148 146 142 138 138 130 120 113 120 111 104 118 113 109 107 103 101 100 99 99 97
210 211 189 182 184 188 180 179 187 190 187 181 176 175 173 169 165 165 163 161 159 155 150 146 141 137 136 131 128 130 130 125 110 125 119 117 112 109 107 107 106 104 102
224 216 209 191 187 187 183 182 185 189 186 182 178 175 174 170 168 166 162 161 159 156 151 145 140 135 134 131 128 125 143 131 101 131 125 123 118 116 113 109 107 106 105
306 226 213 211 202 190 181 185 180 190 187 182 179 176 177 169 167 164 159 160 160 159 153 147 141 138 134 128 133 136 149 147 114 139 135 132 129 125 118 110 104 103 101
261 230 227 221 211 197 186 185 174 188 188 181 179 176 174 169 169 168 166 164 164 162 155 151 146 142 144 132 135 142 160 164 138 122 145 144 139 135 126 117 104 99 100
96 228 229 247 254 193 193 187 180 183 185 183 178 179 174 174 173 172 170 170 168 164 161 156 154 161 161 160 173 161 153 162 159 140 139 148 154 153 145 137 129 107 96
186 272 262 266 256 200 193 187 183 185 184 183 177 175 178 179 177 174 174 174 171 169 168 163 161 160 165 158 150 170 160 170 164 170 171 153 178 191 185 188 192 186 170
219 190 204 250 239 282 234 225 194 193 185 184 176 177 181 181 178 177 176 179 173 166 168 172 181 174 176 171 178 180 183 188 191 188 191 197 219 240 239 237 231 230 233
221 223 214 253 244 283 249 232 220 191 188 183 177 178 182 182 182 178 178 177 177 179 178 181 175 177 182 174 165 173 190 177 181 198 217 224 230 225 256 266 258 257 257
224 224 214 235 256 271 249 227 222 215 187 182 181 181 182 183 185 181 179 181 188 188 181 184 180 182 181 185 177 178 185 182 202 202 206 225 235 223 257 256 264 258 264
222 226 228 229 245 259 229 213 217 229 186 178 179 176 183 180 185 184 182 188 190 181 180 184 184 183 180 178 179 176 183 197 205 205 208 221 227 226 243 260 256 257 263
220 218 214 212 229 214 214 208 214 181 176 178 177 177 169 177 182 184 182 191 185 182 183 187 183 183 188 189 167 175 197 209 204 200 204 216 198 208 215 250 264 255 266
210 215 209 215 215 218 213 202 187 181 171 172 178 178 177 175 181 183 183 182 180 182 182 185 186 178 165 165 163 160 137 117 159 186 203 230 235 243 243 258 269 258 258
207 209 208 215 218 215 210 183 168 169 168 160 174 178 186 185 182 183 184 178 182 185 186 188 188 192 172 177 178 171 121 184 161 190 201 201 213 262 272 268 262 265 267
212 224 220 206 207 197 220 185 160 160 166 170 166 172 178 185 179 181 183 182 187 188 187 186 186 189 180 171 180 186 132 136 156 198 208 239 271 318 315 317 295 275 267
215 212 214 211 195 184 209 184 167 172 169 169 169 174 177 179 179 181 184 187 189 188 187 185 185 187 180 179 179 168 168 162 158 144 150 334 292 286 279 304 300 293 278
214 204 197 194 183 195 179 181 174 171 170 168 172 173 171 179 179 183 186 190 189 189 186 189 189 190 187 183 178 177 175 185 176 173 138 215 258 269 352 308 299 293 279